Tracking 27401 objects as of 3-Jun-2023
HD Live streaming from Space Station
objects crossing your sky now

NADEZHDA 2

Track NADEZHDA 2 now!
10-day predictions
NADEZHDA 2 is classified as:


NORAD ID: 20508
Int'l Code: 1990-017A
Perigee: 959.6 km
Apogee: 1,022.5 km
Inclination: 83.0 °
Period: 104.8 minutes
Semi major axis: 7362 km
RCS: 2.5733 m2 (large)
Launch date: February 27, 1990
Source: Commonwealth of Independent States (former USSR) (CIS)
Launch site: PLESETSK MISSILE AND SPACE COMPLEX (PKMTR)
Your satellite tracking list
Your tracking list is empty




NASA's NSSDC Master Catalog

Two Line Element Set (TLE):
1 20508U 90017A   23154.57424604  .00000087  00000-0  76640-4 0  9991
2 20508  82.9552 173.7202 0042726 294.0827 182.2408 13.74370427667959
Source of the keplerian elements: AFSPC